Weather History for Detroit Metro, MI

Change the Weather History Date:

Friday, January 31, 2014

  Actual Average Record
Temperature  
Mean Temperature 31 °F 26 °F  
Max Temperature 34 °F 32 °F 60 °F (1989)
Min Temperature 27 °F 19 °F -7 °F (1920)
Degree Days  
Heating Degree Days 34 39  
Month to date heating degree days 1499 1226  
Since 1 July heating degree days 3978 3520  
Cooling Degree Days 0 0  
Month to date cooling degree days 0 0  
Year to date cooling degree days 0 0  
Moisture  
Dew Point 22 °F    
Average Humidity 78    
Maximum Humidity 92    
Minimum Humidity 63    
Precipitation  
Precipitation T in 0.06 in 1.48 in (1878)
Month to date precipitation 2.92 1.96  
Year to date precipitation 2.92 1.96  
Snow  
Snow T in 0.40 in 10.00 in (1982)
Month to date snowfall 39.1 12.5  
Since 1 July snowfall 55.8 23.7  
Snow Depth 10.00 in    
Sea Level Pressure  
Sea Level Pressure 30.05 in    
Wind  
Wind Speed 9 mph (SSW)    
Max Wind Speed 20 mph    
Max Gust Speed 22 mph    
Visibility 9 miles    
Events Snow    
T = Trace of Precipitation, MM = Missing Value Source: NWS Daily Summary

Daily Weather History Graph

Daily Weather History Graph

Search for Another Location

Airport:

Trip Planner

Search our weather history database for the weather conditions in past years. The results will help you decide how hot, cold, wet, or windy it might be!

Date:

Astronomy

Jan. 31, 2014 Rise Set
Actual Time 7:47 AM EST 5:46 PM EST
Civil Twilight 7:17 AM EST 6:16 PM EST
Nautical Twilight 6:44 AM EST 6:49 PM EST
Astronomical Twilight 6:11 AM EST 7:22 PM EST
Moon 7:54 AM EST (1/31) 7:11 PM EST (1/31)
Length of Visible Light 10h 58m
Length of Day
9h 58m
New Moon, 1% of the Moon is Illuminated
Jan 31
New Moon
Feb 6
First Quarter
Feb 14
Full
Feb 22
Last Quarter
Mar 1
New

Hourly Weather History & Observations

Time (EST) Temp. Windchill Dew Point Humidity Pressure Visibility Wind Dir Wind Speed Gust Speed Precip Events Conditions
12:38 AM 28.4 °F 16.2 °F 21.2 °F 74% 29.86 in 10.0 mi SSW 17.3 mph - N/A   Overcast
12:53 AM 28.0 °F 16.5 °F 21.9 °F 78% 29.89 in 10.0 mi SSW 15.0 mph - N/A   Overcast
1:53 AM 28.0 °F 18.1 °F 23.0 °F 81% 29.90 in 10.0 mi SSW 11.5 mph - N/A   Overcast
2:53 AM 28.0 °F 17.0 °F 21.9 °F 78% 29.92 in 10.0 mi SSW 13.8 mph - N/A   Overcast
3:53 AM 28.0 °F 18.1 °F 21.0 °F 75% 29.94 in 10.0 mi SSW 11.5 mph - N/A   Overcast
4:53 AM 28.9 °F 19.8 °F 19.9 °F 69% 29.96 in 10.0 mi South 10.4 mph - N/A   Overcast
5:40 AM 28.4 °F 19.7 °F 19.4 °F 69% 29.94 in 10.0 mi SSW 9.2 mph - N/A   Overcast
5:53 AM 28.9 °F 20.4 °F 19.9 °F 69% 29.98 in 10.0 mi SSW 9.2 mph - N/A   Overcast
6:23 AM 28.4 °F 18.5 °F 19.4 °F 69% 29.97 in 10.0 mi SSW 11.5 mph - N/A   Overcast
6:53 AM 28.9 °F 19.8 °F 19.9 °F 69% 30.01 in 10.0 mi SSW 10.4 mph - N/A   Overcast
7:53 AM 30.0 °F 21.7 °F 19.9 °F 66% 30.04 in 10.0 mi SSW 9.2 mph - N/A   Overcast
8:53 AM 30.0 °F 22.4 °F 21.0 °F 69% 30.07 in 10.0 mi SW 8.1 mph - N/A   Overcast
9:20 AM 30.2 °F 22.6 °F 21.2 °F 69% 30.05 in 10.0 mi SW 8.1 mph - N/A   Overcast
9:53 AM 30.0 °F 21.7 °F 21.9 °F 72% 30.09 in 10.0 mi SSW 9.2 mph - N/A   Overcast
10:53 AM 32.0 °F 24.2 °F 23.0 °F 69% 30.11 in 10.0 mi SW 9.2 mph - N/A   Overcast
11:53 AM 33.1 °F 27.7 °F 24.1 °F 70% 30.09 in 10.0 mi WSW 5.8 mph - N/A   Overcast
12:53 PM 34.0 °F 27.2 °F 24.1 °F 67% 30.07 in 10.0 mi SW 8.1 mph - N/A   Overcast
1:53 PM 33.1 °F 24.9 °F 24.1 °F 70% 30.10 in 9.0 mi WSW 10.4 mph - N/A   Overcast
2:53 PM 33.1 °F 24.9 °F 23.0 °F 66% 30.10 in 9.0 mi SW 10.4 mph - N/A   Overcast
3:53 PM 33.1 °F 26.9 °F 24.1 °F 70% 30.12 in 9.0 mi SW 6.9 mph - N/A   Mostly Cloudy
4:46 PM 33.8 °F 27.0 °F 24.8 °F 70% 30.11 in 9.0 mi SW 8.1 mph - N/A   Overcast
4:53 PM 32.0 °F 24.8 °F 24.1 °F 73% 30.13 in 8.0 mi WSW 8.1 mph - N/A   Overcast
5:22 PM 32.0 °F 25.6 °F 23.0 °F 69% 30.11 in 9.0 mi WSW 6.9 mph - N/A   Overcast
5:53 PM 32.0 °F 25.6 °F 23.0 °F 69% 30.13 in 10.0 mi SW 6.9 mph - N/A   Overcast
6:53 PM 30.9 °F 25.2 °F 23.0 °F 72% 30.16 in 10.0 mi SW 5.8 mph - N/A   Overcast
7:53 PM 28.0 °F 21.7 °F 21.9 °F 78% 30.15 in 7.0 mi South 5.8 mph - N/A   Mostly Cloudy
8:53 PM 28.0 °F 20.8 °F 25.0 °F 88% 30.16 in 6.0 mi South 6.9 mph - N/A   Overcast
9:53 PM 27.0 °F 19.5 °F 25.0 °F 92% 30.16 in 5.0 mi South 6.9 mph - N/A   Overcast
10:53 PM 28.0 °F 21.7 °F 25.0 °F 88% 30.16 in 6.0 mi South 5.8 mph - N/A   Overcast
11:53 PM 28.0 °F 22.8 °F 25.0 °F 88% 30.16 in 3.0 mi WSW 4.6 mph - 0.00 in Snow Light Snow